Regional Weather Roundup
Issued by NWS

Home | Current Version | Previous Version | Graphics & Text | Print | Product List | Glossary Off
Versions: 1 2 3 4 5 6 7 8 9 10 11 12 13 14 15 16 17 18 19 20 21 22 23 24 25 26 27 28 29 30 31 32 33 34 35 36 37 38 39 40 41 42 43 44 45 46 47 48 49 50

000
ASUS43 KLOT 022112
RWRIL

ILLINOIS REGIONAL WEATHER ROUNDUP
NATIONAL WEATHER SERVICE CHICAGO/ROMEOVILLE IL
300 PM CST FRI DEC 02 2016

NOTE: "FAIR" INDICATES FEW OR NO CLOUDS BELOW 12,000 FEET WITH NO
SIGNIFICANT WEATHER AND/OR OBSTRUCTIONS TO VISIBILITY.

* THESE STATIONS ARE NOT UNDER NWS QUALITY CONTROL. THEY ALSO MAY NOT
  REPORT WEATHER SUCH AS PRECIPITATION OR FOG.

ILZ001-002-007-009-015-016-024-022200-
NORTHWEST ILLINOIS

CITY           SKY/WX    TMP DP  RH WIND       PRES   REMARKS
MOLINE         CLOUDY    40  27  59 NW10      30.26R
SAVANNA*       CLOUDY    37  26  63 NW8       30.25R WCI  31
$$

ILZ003-004-008-010-011-017-018-022200-
NORTH CENTRAL ILLINOIS

CITY           SKY/WX    TMP DP  RH WIND       PRES   REMARKS
ROCKFORD       CLOUDY    37  27  67 NW10      30.25R WCI  30
FREEPORT*      CLOUDY    34  25  68 NW9G17    30.26R WCI  27
ROCHELLE*      CLOUDY    37  28  71 NW10      30.24R WCI  29
DE KALB*       CLOUDY    37  30  77 NW8       30.22R WCI  30
$$

ILZ005-006-012>014-019>023-022200-
NORTHEAST ILLINOIS

CITY           SKY/WX    TMP DP  RH WIND       PRES   REMARKS
CHICAGO-OHARE  CLOUDY    38  27  64 NW12      30.20R WCI  30
CHICAGO-MIDWAY CLOUDY    40  27  59 NW9       30.21R
AURORA         CLOUDY    38  32  79 NW7       30.22R WCI  33
LANSING*       CLOUDY    38  34  85 W6        30.21S WCI  34
JOLIET*        CLOUDY    40  32  73 NW5       30.23R
WAUKEGAN       CLOUDY    35  24  64 N9        30.21R WCI  28
DUPAGE AIRPORT CLOUDY    38  27  64 NW9       30.20R WCI  31
KANKAKEE*      CLOUDY    40  33  77 W10       30.23R
WHEELING       CLOUDY    37  26  64 NW7       30.22R WCI  32
MORRIS*        CLOUDY    37  34  87 W5        30.23R WCI  34
ROMEOVILLE*    CLOUDY    38  34  84 NW9       30.22R WCI  32
NORTHERLY ISL    N/A     39  27  62 NW9         N/A  WCI  33
$$

LMZ740>746-022200-
SOUTHERN LAKE MICHIGAN

STATION/POSITION SKY/WX   TEMP    WIND        PRES    VSBY  WAVE
                          AIR SEA DIR/SP/G                  HT/PER
                          (F)     (DEG/KT/KT) (MB)    (MI)  (FT/S)
SOUTHERN BUOY              37 49  310/ 10/ 14 1022.9R         3/ 5
HARRISON CRIB              39     330/ 12/ 14   N/A
BURNHAM HARBOR             39     270/  8/ 11   N/A
CALUMET HARBOR             40     310/  7/  9 1022.3R
BURNS HARBOR               40     320/ 10/ 13 1023.0R
MICHIGAN CITY              39     300/ 13/ 17   N/A
$$

ILZ025>027-034>036-040-047-049-050-058-095>099-022200-
WEST-CENTRAL ILLINOIS

CITY           SKY/WX    TMP DP  RH WIND       PRES   REMARKS
QUINCY         PTSUNNY   45  31  58 N3        30.27R
GALESBURG*     CLOUDY    40  32  73 W10       30.26R
MACOMB*        CLOUDY    42  32  66 NW9       30.29R
JACKSONVILLE*  PTSUNNY   42  31  65 NW7       30.27S
PITTSFIELD*    MOSUNNY   45  32  59 N3        30.28S
$$

ILZ028>032-037-038-041>044-048-051>054-059>061-022200-
CENTRAL ILLINOIS

CITY           SKY/WX    TMP DP  RH WIND       PRES   REMARKS
PONTIAC        CLOUDY    40  36  86 NW7       30.25R
BLOOMINGTON    CLOUDY    40  31  70 NW9       30.25R
DECATUR        CLOUDY    41  32  70 W6        30.27R
PEORIA         CLOUDY    41  30  65 NW9       30.26R
LACON*         CLOUDY    40  32  74 NW6       30.25R
LINCOLN*       CLOUDY    42  33  68 W5        30.27R
SPRINGFIELD    CLOUDY    44  32  62 W9        30.28R
TAYLORVILLE    CLOUDY    41  31  68 W7        30.28R
$$

ILZ033-039-045-046-055>057-062-063-022200-
EAST-CENTRAL ILLINOIS

CITY           SKY/WX    TMP DP  RH WIND       PRES   REMARKS
CHAMPAIGN      CLOUDY    41  33  73 W10       30.26R
RANTOUL*       CLOUDY    41  36  81 W7        30.25R
MATTOON        CLOUDY    39  30  70 W9        30.26R WCI  33
PARIS*         CLOUDY    39  33  78 W13       30.27R WCI  32
$$

ILZ079-100>102-022200-
SOUTHWEST ILLINOIS

CITY           SKY/WX    TMP DP  RH WIND       PRES   REMARKS
ALTON          MOSUNNY   45  30  57 NW6       30.28S
BELLEVILLE     SUNNY     48  30  49 NW8       30.27R
CAHOKIA*       SUNNY     48  29  47 NW7       30.28R
SPARTA*        SUNNY     46  30  52 NW5       30.28S
$$

ILZ064>066-069>071-074>076-080>082-084>086-088>090-092>094-022200-
SOUTH-CENTRAL ILLINOIS

CITY           SKY/WX    TMP DP  RH WIND       PRES   REMARKS
CARBONDALE     SUNNY     49  32  52 N8        30.27S
CAIRO*         SUNNY     52  28  40 NW8       30.27R
EFFINGHAM*     CLOUDY    42  34  72 W9        30.29R
MARION         SUNNY     50  32  50 NW7       30.28R
CENTRALIA*     MOSUNNY   46  34  61 NW7       30.27S
SALEM*         PTSUNNY   45  32  60 W8        30.27R
METROPOLIS*    SUNNY     52  31  44 N7        30.27S
$$

ILZ067-068-072-073-078-083-087-091-022200-
SOUTHEAST ILLINOIS

CITY           SKY/WX    TMP DP  RH WIND       PRES   REMARKS
LAWRENCEVILLE  CLOUDY    43  31  62 N10       30.28R
FLORA*         PTSUNNY   46  32  58 W7        30.28R
FAIRFIELD*     MOSUNNY   46  31  57 CALM      30.26S
HARRISBURG*    SUNNY     48  32  53 CALM      30.28R
ROBINSON*      CLOUDY    40  31  69 NW10      30.29R
CARMI*         SUNNY     46  33  61 NW6       30.27S
$$

ABBREVIATIONS USED IN REMARKS
   TC - TEMPERATURE IN CELSIUS
  WCI - WIND CHILL INDEX
   HX - HEAT INDEX
  VSB - VISIBILITY
$$




USA.gov is the U.S. government's official web portal to all federal, state and local government web resources and services.